Location: Limerick
(52.6800°N, 8.6400°W)
Time: 00:54:02
(UTC+01:00)

ISS - All Passes

Search period start: 20 September 2014 00:00
Search period end: 30 September 2014 00:00
Orbit: 414 x 417 km, 51.6° (Epoch: 19 September)

Date Brightness Start Highest point End Pass type
(mag) Time Alt. Az. Time Alt. Az. Time Alt. Az.
20 Sep - 03:38:57 10° S 03:40:51 15° SE 03:42:46 10° ESE visible
20 Sep - 05:13:47 10° SW 05:17:00 46° SSE 05:20:14 10° E visible
20 Sep - 06:50:15 10° W 06:53:35 76° S 06:56:55 10° E daylight
20 Sep - 08:26:57 10° W 08:30:09 45° SSW 08:33:21 10° SE daylight
20 Sep - 10:04:29 10° WSW 10:06:17 14° SW 10:08:04 10° S daylight
21 Sep - 04:25:10 10° SW 04:28:15 36° SSE 04:31:20 10° E visible
21 Sep - 06:01:25 10° W 06:04:45 74° S 06:08:05 10° E visible
21 Sep - 07:38:05 10° W 07:41:22 57° SSW 07:44:39 10° ESE daylight
21 Sep - 09:15:09 10° W 09:17:39 20° SW 09:20:08 10° SSE daylight
22 Sep - 03:36:39 10° SSW 03:39:30 26° SSE 03:42:21 10° E visible
22 Sep - 05:12:34 10° WSW 05:15:53 66° S 05:19:12 10° E visible
22 Sep - 06:49:12 10° W 06:52:31 67° S 06:55:50 10° ESE daylight
22 Sep - 08:26:02 10° W 08:28:55 27° SSW 08:31:48 10° SSE daylight
23 Sep - 02:48:18 10° SSW 02:50:45 19° SE 02:53:12 10° E night (unlit)
23 Sep - 04:23:44 10° WSW 04:27:00 56° SSE 04:30:17 10° E visible
23 Sep - 06:00:17 10° W 06:03:37 74° S 06:06:57 10° E visible
23 Sep - 07:37:01 10° W 07:40:07 36° SSW 07:43:13 10° SE daylight
23 Sep - 09:15:56 10° SW 09:16:06 10° SW 09:16:17 10° SW daylight
24 Sep - 02:00:19 10° S 02:02:01 13° SE 02:03:43 10° ESE night (unlit)
24 Sep - 03:34:55 10° SW 03:38:07 44° SSE 03:41:19 10° E visible
24 Sep - 05:11:20 10° W 05:14:40 76° S 05:18:01 10° E visible
24 Sep - 06:48:01 10° W 06:51:15 48° SSW 06:54:28 10° SE visible
24 Sep - 08:25:25 10° WSW 08:27:24 15° SW 08:29:23 10° S daylight
25 Sep - 02:46:11 10° SW 02:49:14 33° SSE 02:52:17 10° E night (unlit)
25 Sep - 04:22:22 10° WSW 04:25:42 73° S 04:29:02 10° E visible
25 Sep - 05:59:01 10° W 06:02:19 59° SSW 06:05:36 10° ESE visible
25 Sep - 07:36:00 10° W 07:38:36 21° SSW 07:41:12 10° SSE daylight
26 Sep - 01:57:33 10° SSW 02:00:20 25° SSE 02:03:08 10° E night (unlit)
26 Sep - 03:33:23 10° WSW 03:36:42 64° SSE 03:40:01 10° E visible
26 Sep - 05:09:59 10° W 05:13:19 69° S 05:16:38 10° ESE visible
26 Sep - 06:46:47 10° W 06:49:44 29° SSW 06:52:40 10° SSE visible
27 Sep - 01:09:08 10° S 01:11:28 18° SE 01:13:47 10° E night (unlit)
27 Sep - 02:44:25 10° WSW 02:47:41 53° SSE 02:50:57 10° E night (unlit)
27 Sep - 04:20:56 10° W 04:24:16 75° S 04:27:36 10° E visible
27 Sep - 05:57:38 10° W 06:00:47 39° SSW 06:03:55 10° SE visible
27 Sep - 07:35:47 10° WSW 07:36:48 11° SW 07:37:49 10° SSW daylight
28 Sep - 00:21:10 10° SSE 00:22:36 12° SE 00:24:01 10° ESE night (unlit)
28 Sep - 01:55:29 10° SW 01:58:39 41° SSE 02:01:50 10° E night (unlit)
28 Sep - 03:31:51 10° W 03:35:11 76° S 03:38:31 10° E visible
28 Sep - 05:08:30 10° W 05:11:45 50° SSW 05:15:00 10° ESE visible
28 Sep - 06:45:46 10° WSW 06:47:56 16° SW 06:50:06 10° S visible
29 Sep - 01:06:38 10° SW 01:09:37 31° SSE 01:12:38 10° E night (unlit)
29 Sep - 02:42:44 10° WSW 02:46:04 71° S 02:49:23 10° E night (unlit)
29 Sep - 04:19:22 10° W 04:22:40 62° SSW 04:25:58 10° ESE visible
29 Sep - 05:56:17 10° W 05:58:59 23° SSW 06:01:41 10° SSE visible
